GW3047 Weather Reports


Display with metric or nautical units.
time (UTC)temp
F
wind
direction
speed
MPH
gust
MPH
rain 1hr
in
rain 24hr
in
rain mn
in
humidity
%
barometer
mb
20260906010108 87 120 2.0 10.0 0.00 0.00 0.00 44 1013.7
20260906004605 89 83 1.0 10.0 0.00 0.00 0.00 40 1013.7
20260906003104 92 54 2.0 9.0 0.00 0.00 0.00 35 1013.6
20260906001605 93 97 4.0 14.0 0.00 0.00 0.00 31 1013.5
20260906000106 93 193 3.0 8.0 0.00 0.00 0.00 31 1013.8
20260905234609 94 196 4.0 14.0 0.00 0.00 0.00 30 1013.7
20260905233116 94 185 6.0 13.0 0.00 0.00 0.00 29 1013.5
20260905231602 96 208 4.0 14.0 0.00 0.00 0.00 27 1013.3
20260905230117 97 129 6.0 16.0 0.00 0.00 0.00 27 1013.2
20260905224604 98 189 6.0 14.0 0.00 0.00 0.00 27 1013.0
20260905223120 98 218 2.0 9.0 0.00 0.00 0.00 29 1012.9
20260905221604 98 197 5.0 15.0 0.00 0.00 0.00 29 1012.8
20260905220117 97 185 6.0 12.0 0.00 0.00 0.00 28 1013.0
20260905214625 97 181 3.0 14.0 0.00 0.00 0.00 31 1012.9
20260905213119 97 165 6.0 14.0 0.00 0.00 0.00 29 1013.1
20260905211616 97 150 6.0 16.0 0.00 0.00 0.00 29 1013.3
20260905210114 96 145 4.0 17.0 0.00 0.00 0.00 31 1013.6
20260905204601 95 195 5.0 13.0 0.00 0.00 0.00 32 1013.9
20260905203106 95 187 5.0 12.0 0.00 0.00 0.00 35 1014.3
20260905201602 95 130 3.0 14.0 0.00 0.00 0.00 34 1014.6
20260905200105 94 207 3.0 8.0 0.00 0.00 0.00 37 1014.9
20260905194600 92 44 2.0 11.0 0.00 0.00 0.00 41 1015.0
20260905193106 90 179 2.0 14.0 0.00 0.00 0.00 44 1015.4
20260905191604 89 183 1.0 6.0 0.00 0.00 0.00 49 1015.6
20260905190104 88 196 1.0 8.0 0.00 0.00 0.00 49 1015.7
20260905184610 87 190 3.0 6.0 0.00 0.00 0.00 50 1015.8
20260905183119 86 182 1.0 7.0 0.00 0.00 0.00 51 1015.8
20260905181606 85 224 3.0 6.0 0.00 0.00 0.00 52 1016.0
20260905180108 85 214 2.0 7.0 0.00 0.00 0.00 52 1016.1
20260905174605 84 197 4.0 8.0 0.00 0.00 0.00 52 1016.1
20260905173106 84 178 3.0 9.0 0.00 0.00 0.00 53 1016.2
20260905171606 84 197 5.0 12.0 0.00 0.00 0.00 52 1016.1
20260905170105 85 203 5.0 10.0 0.00 0.00 0.00 51 1016.0
20260905164602 85 197 6.0 21.0 0.00 0.00 0.00 49 1015.9
20260905163107 86 206 5.0 11.0 0.00 0.00 0.00 49 1015.8
20260905161608 86 211 6.0 15.0 0.00 0.00 0.00 50 1015.7
20260905160107 84 206 6.0 14.0 0.00 0.00 0.00 52 1015.7
20260905154601 81 187 3.0 8.0 0.00 0.00 0.00 57 1015.7
20260905153116 78 193 3.0 5.0 0.00 0.00 0.00 62 1015.7
20260905151611 77 166 2.0 5.0 0.00 0.00 0.00 63 1015.7
20260905150117 77 187 1.0 5.0 0.00 0.00 0.00 63 1015.6
20260905144609 76 169 1.0 4.0 0.00 0.00 0.00 63 1015.5
20260905143106 75 0 0.0 2.0 0.00 0.00 0.00 65 1015.6
20260905141628 73 177 0.0 2.0 0.00 0.00 0.00 66 1015.4
20260905140112 73 0 0.0 2.0 0.00 0.00 0.00 67 1015.3
20260905134602 72 0 0.0 3.0 0.00 0.00 0.00 67 1015.2
20260905133103 72 178 0.0 2.0 0.00 0.00 0.00 66 1015.0
20260905131619 72 174 2.0 4.0 0.00 0.00 0.00 66 1014.6
20260905130106 72 174 1.0 6.0 0.00 0.00 0.00 65 1014.5
20260905124600 72 135 2.0 7.0 0.00 0.00 0.00 64 1014.2
20260905123110 73 187 2.0 5.0 0.00 0.00 0.00 63 1014.0
20260905121606 73 187 0.0 1.0 0.00 0.00 0.00 61 1013.9
20260905120105 74 0 0.0 2.0 0.00 0.00 0.00 60 1013.8
20260905114559 74 0 0.0 4.0 0.00 0.00 0.00 59 1013.8
20260905113101 75 184 1.0 7.0 0.00 0.00 0.00 57 1014.0
20260905111559 76 129 1.0 4.0 0.00 0.00 0.00 56 1014.1
20260905110101 76 201 1.0 8.0 0.00 0.00 0.00 54 1014.0
20260905104606 77 79 0.0 4.0 0.00 0.00 0.00 51 1013.9
20260905103109 77 183 2.0 6.0 0.00 0.00 0.00 50 1013.3
20260905101601 78 194 2.0 7.0 0.00 0.00 0.00 50 1013.4
20260905100125 78 189 4.0 12.0 0.00 0.00 0.00 50 1013.5
20260905094603 78 222 6.0 13.0 0.00 0.00 0.00 50 1013.4
20260905093104 78 241 8.0 15.0 0.00 0.00 0.00 49 1013.5
20260905091601 78 218 7.0 15.0 0.00 0.00 0.00 48 1013.8
20260905090136 78 242 6.0 15.0 0.00 0.00 0.00 49 1013.8
20260905084604 77 187 6.0 14.0 0.00 0.00 0.00 52 1013.9
20260905083058 77 234 7.0 16.0 0.00 0.00 0.00 54 1014.1
20260905081605 76 240 8.0 16.0 0.00 0.00 0.00 56 1014.2
20260905074608 76 193 5.0 15.0 0.00 0.00 0.00 63 1014.7
20260905073107 77 210 4.0 10.0 0.00 0.00 0.00 56 1015.1
20260905071602 79 0 3.0 17.0 0.00 0.00 0.00 52 1015.0
20260905070108 79 218 7.0 20.0 0.00 0.00 0.00 50 1014.1
20260905064604 79 240 8.0 18.0 0.00 0.00 0.00 48 1014.1
20260905063105 78 170 12.0 20.0 0.00 0.00 0.00 48 1014.3
20260905061604 77 204 7.0 19.0 0.00 0.00 0.00 53 1014.3
20260905060109 77 225 9.0 18.0 0.00 0.00 0.00 55 1014.5
20260905054605 77 187 8.0 22.0 0.00 0.00 0.00 53 1014.5
20260905053107 79 212 11.0 21.0 0.00 0.00 0.00 49 1014.5
20260905051617 81 193 12.0 26.0 0.00 0.00 0.00 43 1014.6
20260905050109 81 205 12.0 26.0 0.00 0.00 0.00 42 1014.7
20260905044604 81 181 11.0 24.0 0.00 0.00 0.00 43 1014.5
20260905043106 81 215 9.0 19.0 0.00 0.00 0.00 43 1014.4
20260905041602 80 198 10.0 18.0 0.00 0.00 0.00 47 1014.6
20260905040107 81 204 10.0 20.0 0.00 0.00 0.00 49 1014.6
20260905034601 81 210 7.0 20.0 0.00 0.00 0.00 49 1014.6
20260905033104 83 180 8.0 19.0 0.00 0.00 0.00 45 1015.0
20260905031617 84 148 8.0 20.0 0.00 0.00 0.00 42 1014.9
20260905030106 85 172 6.0 13.0 0.00 0.00 0.00 38 1014.5
20260905024601 87 175 5.0 17.0 0.00 0.00 0.00 33 1014.4
20260905023101 87 184 4.0 13.0 0.00 0.00 0.00 30 1013.9
20260905021603 86 194 5.0 15.0 0.00 0.00 0.00 33 1013.7
20260905020106 86 184 7.0 14.0 0.00 0.00 0.00 35 1013.3
20260905014603 85 197 5.0 16.0 0.00 0.00 0.00 35 1013.0
20260905013105 84 192 7.0 15.0 0.00 0.00 0.00 37 1012.9
20260905011606 83 213 2.0 9.0 0.00 0.00 0.00 46 1012.8